Zurück zum Katalog

CZ-6A DEB

AktivSSO
NORAD 54432·DEBRIS·🇨🇳 China

Gestartet Nov 11, 2022 von Taiyuan Satellite Launch Center

Loading…

Nächste Überflüge (nächste 24 Stunden)

TLE

AktuellSource: Space-Track

Epoche: Sep 14, 2026, 11:37 UTC

1 54432U 22151FG  26257.48409032  .00002172  00000-0  11100-2 0  9998
2 54432  98.9965 261.8649 0171226  96.9092 265.1589 14.09324236196125

Verfolge CZ-6A DEB in Echtzeit mit AllMySat

Download on the App Store